^^
Datos históricos de la estación: Murcia-Puente Tocinos
Diario Informe para Abril 22, 2019 Unidades:  Métrico    Inglés   Ambas
Diario Semanal Mensual Anual Configurable
  Máximo: Mínimo: Media:
Temperatura: 19.4 °C 11.6 °C 15.1 °C
Punto de rocio: 12.1 °C 8.9 °C 10.2 °C
Humedad: 91% 51% 74%
Velocidad viento: 16.4km/h 0.0km/h 9.5km/h
Racha viento: 31.5km/h - -
Viento- - SW
Presión: 1003.7 hPa 998.8 hPa -
Precipitación: 1.5 mm    
Historical Graphs
 
 
Tabla de datos para Abril 22, 2019
Hora Temperatura Punto de rocio Presión Viento Velocidad viento Racha viento Humedad Intensidad lluvia(por hora) Nubes
00:00 12.7 °C 10.6 °C 1003.7 hPa SSW 12.9 km/h 20.9 km/h 87% 0.0 mm RA
00:05 12.7 °C 10.6 °C 1003.6 hPa SW 13.0 km/h 18.3 km/h 87% 1.0 mm RA
00:10 12.7 °C 10.6 °C 1003.6 hPa SW 12.2 km/h 20.4 km/h 87% 1.0 mm CLR
00:15 12.7 °C 10.6 °C 1003.6 hPa SSW 12.2 km/h 20.4 km/h 87% 0.5 mm CLR
00:20 12.7 °C 10.6 °C 1003.3 hPa SW 14.0 km/h 18.5 km/h 87% 0.5 mm CLR
00:25 12.7 °C 10.6 °C 1003.3 hPa West 14.0 km/h 18.5 km/h 87% 0.5 mm CLR
00:30 12.7 °C 10.6 °C 1003.3 hPa SW 12.2 km/h 13.0 km/h 87% 0.5 mm CLR
00:35 12.7 °C 10.6 °C 1003.6 hPa West 12.2 km/h 16.4 km/h 87% 0.5 mm CLR
00:40 12.7 °C 10.6 °C 1003.6 hPa SW 10.0 km/h 16.7 km/h 87% 0.5 mm RA
00:45 12.7 °C 10.8 °C 1003.6 hPa WSW 10.0 km/h 14.8 km/h 88% 0.5 mm RA
00:50 12.6 °C 10.7 °C 1003.3 hPa SW 10.3 km/h 16.7 km/h 88% 0.5 mm RA
00:55 12.6 °C 10.7 °C 1003.3 hPa South 10.3 km/h 13.0 km/h 88% 0.3 mm
01:00 12.6 °C 10.7 °C 1003.3 hPa SW 9.7 km/h 19.3 km/h 88% 0.0 mm RA
01:04 12.6 °C 10.7 °C 1003.4 hPa SSW 10.0 km/h 16.4 km/h 88% 0.5 mm RA
01:09 12.5 °C 10.7 °C 1003.4 hPa WSW 10.0 km/h 13.0 km/h 89% 0.5 mm
01:14 12.4 °C 10.6 °C 1003.4 hPa WSW 10.0 km/h 14.8 km/h 89% 0.5 mm
01:19 12.4 °C 10.4 °C 1003.2 hPa SW 10.3 km/h 20.4 km/h 88% 1.0 mm RA
01:24 12.4 °C 10.3 °C 1003.2 hPa WSW 10.3 km/h 27.8 km/h 87% 1.0 mm RA
01:29 12.4 °C 10.1 °C 1003.2 hPa WSW 14.0 km/h 22.2 km/h 86% 1.0 mm
01:34 12.4 °C 10.1 °C 1003.2 hPa WSW 14.0 km/h 27.8 km/h 86% 1.3 mm RA
01:39 12.3 °C 10.0 °C 1003.2 hPa SW 16.4 km/h 22.0 km/h 86% 1.3 mm RA
01:44 12.3 °C 10.0 °C 1003.2 hPa SW 16.4 km/h 22.5 km/h 86% 1.3 mm RA
01:49 12.2 °C 9.9 °C 1003.0 hPa WSW 14.8 km/h 22.2 km/h 86% 1.0 mm
01:54 12.2 °C 9.9 °C 1003.0 hPa WSW 14.8 km/h 19.0 km/h 86% 1.0 mm CLR
01:59 12.2 °C 9.9 °C 1003.0 hPa SSW 14.0 km/h 18.5 km/h 86% 1.0 mm CLR
02:04 12.2 °C 9.8 °C 1002.8 hPa South 14.0 km/h 22.2 km/h 85% 0.8 mm CLR
02:09 12.2 °C 9.8 °C 1002.8 hPa SSW 13.7 km/h 18.5 km/h 85% 0.8 mm CLR
02:14 12.2 °C 9.8 °C 1002.8 hPa SW 13.7 km/h 24.1 km/h 85% 0.8 mm CLR
02:19 12.2 °C 9.6 °C 1002.7 hPa SW 14.0 km/h 20.4 km/h 84% 0.8 mm CLR
02:24 12.2 °C 9.4 °C 1002.7 hPa SW 14.0 km/h 25.9 km/h 83% 0.3 mm CLR
02:29 12.2 °C 9.4 °C 1002.7 hPa WSW 14.0 km/h 22.2 km/h 83% 0.3 mm CLR
02:34 12.3 °C 9.5 °C 1002.5 hPa WSW 14.0 km/h 24.1 km/h 83% 0.3 mm CLR
02:39 12.3 °C 9.5 °C 1002.5 hPa SSW 14.8 km/h 20.4 km/h 83% 0.0 mm CLR
02:44 12.3 °C 9.7 °C 1002.5 hPa SSW 14.8 km/h 13.0 km/h 84% 0.0 mm CLR
02:49 12.3 °C 9.7 °C 1002.3 hPa South 11.9 km/h 16.7 km/h 84% 0.0 mm CLR
02:54 12.3 °C 9.8 °C 1002.3 hPa SSW 11.9 km/h 13.0 km/h 85% 0.0 mm CLR
02:59 12.3 °C 10.0 °C 1002.3 hPa SSW 10.3 km/h 14.8 km/h 86% 0.0 mm CLR
03:04 12.2 °C 9.9 °C 1002.2 hPa South 10.3 km/h 14.8 km/h 86% 0.0 mm CLR
03:09 12.1 °C 10.0 °C 1002.2 hPa SSW 10.3 km/h 16.7 km/h 87% 0.0 mm CLR
03:14 11.9 °C 10.0 °C 1002.2 hPa South 10.3 km/h 16.7 km/h 88% 0.0 mm CLR
03:19 11.9 °C 10.0 °C 1002.1 hPa SSW 11.9 km/h 16.7 km/h 88% 0.0 mm CLR
03:24 11.9 °C 10.0 °C 1002.1 hPa SSW 11.9 km/h 22.2 km/h 88% 0.0 mm CLR
03:29 11.9 °C 9.8 °C 1002.1 hPa SSW 13.0 km/h 25.9 km/h 87% 0.0 mm CLR
03:34 12.0 °C 9.9 °C 1001.8 hPa WSW 13.0 km/h 20.4 km/h 87% 0.0 mm CLR
03:39 12.0 °C 9.7 °C 1001.8 hPa South 14.8 km/h 18.5 km/h 86% 0.0 mm CLR
03:44 12.0 °C 9.7 °C 1001.8 hPa SW 14.8 km/h 13.0 km/h 86% 0.0 mm CLR
03:49 12.0 °C 9.7 °C 1001.7 hPa SW 11.9 km/h 22.2 km/h 86% 0.0 mm CLR
03:54 12.0 °C 9.7 °C 1001.7 hPa SSW 11.9 km/h 18.5 km/h 86% 0.0 mm CLR
03:59 12.0 °C 9.7 °C 1001.7 hPa SSW 13.0 km/h 22.2 km/h 86% 0.0 mm CLR
04:04 12.0 °C 9.7 °C 1001.6 hPa South 13.0 km/h 20.4 km/h 86% 0.0 mm CLR
04:09 12.0 °C 9.7 °C 1001.6 hPa SSW 12.2 km/h 16.7 km/h 86% 0.0 mm CLR
04:14 12.0 °C 9.7 °C 1001.6 hPa SSW 12.2 km/h 16.7 km/h 86% 0.0 mm CLR
04:19 12.0 °C 9.7 °C 1001.5 hPa SW 11.1 km/h 18.5 km/h 86% 0.0 mm CLR
04:24 12.0 °C 9.7 °C 1001.5 hPa SSW 11.1 km/h 18.5 km/h 86% 0.0 mm CLR
04:29 12.1 °C 9.8 °C 1001.5 hPa WSW 11.1 km/h 18.3 km/h 86% 0.0 mm CLR
04:34 12.1 °C 9.8 °C 1001.4 hPa SSW 11.1 km/h 16.4 km/h 86% 0.0 mm CLR
04:39 12.1 °C 9.8 °C 1001.4 hPa SW 11.1 km/h 16.7 km/h 86% 0.0 mm CLR
04:44 12.1 °C 9.8 °C 1001.4 hPa SSW 11.1 km/h 16.7 km/h 86% 0.0 mm CLR
04:49 12.1 °C 9.8 °C 1001.3 hPa SSW 11.1 km/h 18.5 km/h 86% 0.0 mm CLR
04:54 12.1 °C 9.7 °C 1001.3 hPa SSW 11.1 km/h 16.7 km/h 85% 0.0 mm CLR
04:59 12.1 °C 9.7 °C 1001.3 hPa SSW 11.9 km/h 14.8 km/h 85% 0.0 mm CLR
05:04 12.2 °C 9.8 °C 1001.2 hPa SW 11.9 km/h 16.7 km/h 85% 0.0 mm CLR
05:09 12.2 °C 9.8 °C 1001.2 hPa SW 9.5 km/h 16.7 km/h 85% 0.0 mm CLR
05:14 12.2 °C 9.8 °C 1001.2 hPa South 9.5 km/h 14.8 km/h 85% 0.0 mm CLR
05:19 12.2 °C 9.8 °C 1001.0 hPa SSW 10.3 km/h 18.5 km/h 85% 0.0 mm CLR
05:24 12.1 °C 9.8 °C 1001.0 hPa WSW 10.3 km/h 14.0 km/h 86% 0.0 mm CLR
05:29 12.1 °C 9.8 °C 1001.0 hPa SW 10.3 km/h 16.7 km/h 86% 0.0 mm CLR
05:34 12.1 °C 9.8 °C 1001.0 hPa SSW 10.3 km/h 18.5 km/h 86% 0.0 mm CLR
05:39 12.1 °C 9.8 °C 1001.0 hPa South 11.1 km/h 14.8 km/h 86% 0.0 mm CLR
05:44 12.1 °C 9.8 °C 1001.0 hPa South 11.1 km/h 13.0 km/h 86% 0.0 mm CLR
05:49 12.1 °C 9.8 °C 1000.9 hPa South 10.3 km/h 16.7 km/h 86% 0.0 mm CLR
05:54 12.2 °C 9.9 °C 1000.9 hPa South 10.3 km/h 14.8 km/h 86% 0.0 mm CLR
05:59 12.2 °C 9.9 °C 1000.9 hPa SW 10.0 km/h 13.0 km/h 86% 0.0 mm CLR
06:04 12.1 °C 10.0 °C 1000.8 hPa SW 10.0 km/h 12.2 km/h 87% 0.0 mm CLR
06:09 12.1 °C 10.0 °C 1000.8 hPa WSW 8.4 km/h 11.1 km/h 87% 0.0 mm CLR
06:14 12.1 °C 10.2 °C 1000.8 hPa SW 8.4 km/h 14.8 km/h 88% 0.3 mm RA
06:19 12.0 °C 10.1 °C 1000.7 hPa SW 8.4 km/h 14.8 km/h 88% 0.3 mm RA
06:24 12.0 °C 10.2 °C 1000.7 hPa South 8.4 km/h 13.0 km/h 89% 0.3 mm RA
06:29 11.9 °C 10.2 °C 1000.7 hPa SSW 8.7 km/h 16.7 km/h 89% 0.3 mm
06:34 11.9 °C 10.2 °C 1000.6 hPa South 8.7 km/h 14.8 km/h 89% 0.3 mm CLR
06:39 11.9 °C 10.3 °C 1000.6 hPa South 10.3 km/h 13.0 km/h 90% 0.3 mm CLR
06:44 11.8 °C 10.2 °C 1000.6 hPa South 10.3 km/h 14.0 km/h 90% 0.3 mm CLR
06:49 11.8 °C 10.2 °C 1000.4 hPa SSW 9.5 km/h 14.8 km/h 90% 0.3 mm CLR
06:54 11.7 °C 10.3 °C 1000.4 hPa SSW 9.5 km/h 18.5 km/h 91% 0.3 mm CLR
06:59 11.7 °C 10.3 °C 1000.4 hPa SSW 11.1 km/h 18.5 km/h 91% 0.3 mm CLR
07:04 11.6 °C 10.2 °C 1000.5 hPa SSW 11.1 km/h 18.5 km/h 91% 0.3 mm CLR
07:09 11.7 °C 10.3 °C 1000.5 hPa SSW 12.2 km/h 20.4 km/h 91% 0.3 mm CLR
07:14 11.7 °C 10.1 °C 1000.5 hPa SW 12.2 km/h 20.4 km/h 90% 0.3 mm CLR
07:19 11.8 °C 10.2 °C 1000.5 hPa SSW 13.0 km/h 22.2 km/h 90% 0.3 mm CLR
07:24 11.9 °C 10.2 °C 1000.5 hPa SW 13.0 km/h 18.5 km/h 89% 0.0 mm CLR
07:29 11.9 °C 10.2 °C 1000.5 hPa South 15.6 km/h 24.1 km/h 89% 0.0 mm CLR
07:34 11.9 °C 10.2 °C 1000.5 hPa South 15.6 km/h 22.2 km/h 89% 0.0 mm CLR
07:39 12.0 °C 10.2 °C 1000.5 hPa SSW 13.7 km/h 24.1 km/h 89% 0.0 mm CLR
07:44 12.1 °C 10.3 °C 1000.5 hPa SSW 13.7 km/h 16.7 km/h 89% 0.0 mm CLR
07:49 12.1 °C 10.2 °C 1000.7 hPa SSW 13.0 km/h 22.2 km/h 88% 0.0 mm CLR
07:54 12.1 °C 10.2 °C 1000.7 hPa SSW 13.0 km/h 16.7 km/h 88% 0.0 mm CLR
07:59 12.2 °C 10.3 °C 1000.7 hPa SW 11.9 km/h 18.5 km/h 88% 0.0 mm CLR
08:04 12.2 °C 10.3 °C 1000.7 hPa SW 11.9 km/h 18.5 km/h 88% 0.0 mm CLR
08:09 12.3 °C 10.2 °C 1000.7 hPa SSW 10.3 km/h 13.0 km/h 87% 0.0 mm CLR
08:14 12.3 °C 10.2 °C 1000.7 hPa SW 10.3 km/h 14.8 km/h 87% 0.0 mm CLR
08:19 12.3 °C 10.2 °C 1000.7 hPa WSW 10.3 km/h 13.0 km/h 87% 0.0 mm CLR
08:24 12.3 °C 10.2 °C 1000.7 hPa SSW 10.3 km/h 13.0 km/h 87% 0.0 mm CLR
08:29 12.4 °C 10.1 °C 1000.7 hPa SSW 10.0 km/h 13.0 km/h 86% 0.0 mm CLR
08:34 12.4 °C 10.1 °C 1000.7 hPa SSW 10.0 km/h 12.2 km/h 86% 0.0 mm CLR
08:39 12.4 °C 10.1 °C 1000.7 hPa SSW 9.5 km/h 14.8 km/h 86% 0.0 mm CLR
08:44 12.5 °C 10.2 °C 1000.7 hPa SSW 9.5 km/h 14.8 km/h 86% 0.0 mm CLR
08:49 12.5 °C 10.2 °C 1000.7 hPa South 10.3 km/h 13.0 km/h 86% 0.0 mm CLR
08:54 12.6 °C 10.3 °C 1000.7 hPa SSW 10.3 km/h 16.7 km/h 86% 0.0 mm CLR
08:59 12.6 °C 10.3 °C 1000.7 hPa SSW 10.0 km/h 13.0 km/h 86% 0.0 mm CLR
09:04 12.7 °C 10.4 °C 1000.8 hPa SSW 10.0 km/h 14.8 km/h 86% 0.0 mm CLR
09:09 12.7 °C 10.4 °C 1000.8 hPa SW 10.3 km/h 11.1 km/h 86% 0.0 mm CLR
09:14 12.7 °C 10.4 °C 1000.8 hPa SW 10.3 km/h 11.1 km/h 86% 0.0 mm CLR
09:19 12.7 °C 10.4 °C 1000.8 hPa SSW 8.7 km/h 13.0 km/h 86% 0.0 mm CLR
09:24 12.7 °C 10.4 °C 1000.8 hPa SSW 8.7 km/h 13.0 km/h 86% 0.0 mm CLR
09:29 12.8 °C 10.5 °C 1000.8 hPa SSW 9.5 km/h 13.0 km/h 86% 0.0 mm CLR
09:34 12.8 °C 10.5 °C 1000.9 hPa SSW 9.5 km/h 10.0 km/h 86% 0.0 mm CLR
09:39 12.8 °C 10.5 °C 1000.9 hPa SW 8.4 km/h 11.1 km/h 86% 0.0 mm CLR
09:44 12.9 °C 10.6 °C 1000.9 hPa SW 8.4 km/h 16.7 km/h 86% 0.0 mm CLR
09:49 12.9 °C 10.6 °C 1000.8 hPa SW 7.6 km/h 9.3 km/h 86% 0.0 mm CLR
09:54 13.0 °C 10.6 °C 1000.8 hPa SW 7.6 km/h 13.0 km/h 85% 0.0 mm CLR
09:59 13.1 °C 10.4 °C 1000.8 hPa SW 7.6 km/h 9.3 km/h 84% 0.0 mm CLR
10:04 13.1 °C 10.4 °C 1000.9 hPa SSW 7.6 km/h 11.1 km/h 84% 0.0 mm CLR
10:09 13.2 °C 10.4 °C 1000.9 hPa SSW 6.9 km/h 13.0 km/h 83% 0.0 mm CLR
10:14 13.2 °C 10.4 °C 1000.9 hPa SSW 6.9 km/h 13.0 km/h 83% 0.0 mm CLR
10:19 13.2 °C 10.4 °C 1000.9 hPa SSW 8.4 km/h 14.8 km/h 83% 0.0 mm CLR
10:24 13.2 °C 10.6 °C 1000.9 hPa SSW 8.4 km/h 13.0 km/h 84% 0.0 mm CLR
10:29 13.2 °C 10.4 °C 1000.9 hPa SSW 9.5 km/h 14.8 km/h 83% 0.0 mm CLR
10:34 13.2 °C 10.6 °C 1000.9 hPa SSW 9.5 km/h 13.7 km/h 84% 0.0 mm CLR
10:39 13.2 °C 10.4 °C 1000.9 hPa SSW 8.4 km/h 13.0 km/h 83% 0.0 mm CLR
10:44 13.3 °C 10.5 °C 1000.9 hPa SSW 8.4 km/h 11.1 km/h 83% 0.0 mm CLR
10:49 13.3 °C 10.5 °C 1001.0 hPa SSW 7.6 km/h 7.4 km/h 83% 0.0 mm CLR
10:54 13.3 °C 10.5 °C 1001.0 hPa SSW 7.6 km/h 11.1 km/h 83% 0.0 mm CLR
10:59 13.4 °C 10.6 °C 1001.0 hPa South 5.8 km/h 7.4 km/h 83% 0.0 mm CLR
11:04 13.4 °C 10.4 °C 1001.0 hPa SSE 5.8 km/h 7.6 km/h 82% 0.0 mm CLR
11:09 13.6 °C 10.4 °C 1001.0 hPa South 5.8 km/h 9.3 km/h 81% 0.0 mm CLR
11:14 13.6 °C 10.6 °C 1001.0 hPa SSE 5.8 km/h 7.4 km/h 82% 0.0 mm CLR
11:19 13.7 °C 10.7 °C 1001.0 hPa South 5.0 km/h 7.6 km/h 82% 0.0 mm CLR
11:24 13.7 °C 10.7 °C 1001.0 hPa SSW 5.0 km/h 7.4 km/h 82% 0.0 mm CLR
11:29 13.8 °C 10.8 °C 1001.0 hPa SW 6.4 km/h 7.4 km/h 82% 0.0 mm CLR
11:34 13.9 °C 10.9 °C 1001.0 hPa SW 6.4 km/h 7.4 km/h 82% 0.0 mm CLR
11:39 14.0 °C 10.8 °C 1001.0 hPa SSW 4.7 km/h 11.1 km/h 81% 0.0 mm CLR
11:44 14.1 °C 10.9 °C 1001.0 hPa SSW 4.7 km/h 11.9 km/h 81% 0.0 mm CLR
11:49 14.2 °C 10.8 °C 1000.9 hPa SW 6.9 km/h 14.8 km/h 80% 0.0 mm CLR
11:55 14.3 °C 10.7 °C 1000.9 hPa SSW 8.0 km/h 14.5 km/h 79% 0.0 mm CLR
11:59 14.4 °C 10.6 °C 1000.9 hPa South 7.6 km/h 9.3 km/h 78% 0.0 mm CLR
12:04 14.6 °C 10.6 °C 1000.9 hPa WSW 7.6 km/h 11.1 km/h 77% 0.0 mm CLR
12:09 14.7 °C 10.5 °C 1000.9 hPa West 6.4 km/h 7.4 km/h 76% 0.0 mm CLR
12:14 14.9 °C 10.3 °C 1000.9 hPa WSW 6.4 km/h 16.7 km/h 74% 0.0 mm CLR
12:19 15.1 °C 10.5 °C 1000.9 hPa West 6.9 km/h 11.1 km/h 74% 0.0 mm CLR
12:24 15.2 °C 10.4 °C 1000.9 hPa NNW 6.9 km/h 13.0 km/h 73% 0.0 mm CLR
12:29 15.4 °C 10.4 °C 1000.9 hPa SW 6.9 km/h 11.1 km/h 72% 0.0 mm CLR
12:34 15.6 °C 10.3 °C 1000.7 hPa WSW 6.9 km/h 13.7 km/h 71% 0.0 mm CLR
12:39 15.9 °C 10.2 °C 1000.7 hPa WSW 9.5 km/h 14.8 km/h 69% 0.0 mm CLR
12:44 16.1 °C 10.2 °C 1000.7 hPa WNW 9.5 km/h 29.6 km/h 68% 0.0 mm CLR
12:49 16.2 °C 10.1 °C 1000.7 hPa WNW 13.0 km/h 18.5 km/h 67% 0.0 mm CLR
12:54 16.4 °C 10.3 °C 1000.7 hPa WNW 13.0 km/h 16.7 km/h 67% 0.0 mm CLR
12:59 16.6 °C 10.4 °C 1000.7 hPa West 11.1 km/h 13.0 km/h 67% 0.0 mm CLR
13:04 16.7 °C 10.1 °C 1000.6 hPa WNW 11.1 km/h 20.4 km/h 65% 0.0 mm CLR
13:09 16.7 °C 9.8 °C 1000.6 hPa NW 11.9 km/h 16.7 km/h 64% 0.0 mm CLR
13:14 16.7 °C 9.8 °C 1000.6 hPa WNW 11.9 km/h 24.1 km/h 64% 0.0 mm CLR
13:19 16.8 °C 10.2 °C 1000.5 hPa West 14.8 km/h 16.7 km/h 65% 0.0 mm CLR
13:24 16.9 °C 10.1 °C 1000.5 hPa WNW 14.8 km/h 25.9 km/h 64% 0.0 mm CLR
13:29 16.9 °C 10.1 °C 1000.5 hPa WNW 12.2 km/h 24.1 km/h 64% 0.0 mm CLR
13:34 16.9 °C 10.1 °C 1000.3 hPa West 12.2 km/h 24.1 km/h 64% 0.0 mm CLR
13:39 17.1 °C 10.0 °C 1000.3 hPa WNW 15.6 km/h 23.3 km/h 63% 0.0 mm CLR
13:44 17.3 °C 10.2 °C 1000.3 hPa West 15.6 km/h 16.7 km/h 63% 0.0 mm CLR
13:49 17.4 °C 10.1 °C 1000.1 hPa WNW 15.6 km/h 20.4 km/h 62% 0.0 mm CLR
13:55 17.6 °C 10.2 °C 1000.1 hPa WNW 14.5 km/h 22.5 km/h 62% 0.0 mm CLR
13:59 17.6 °C 10.2 °C 1000.1 hPa WNW 14.0 km/h 18.5 km/h 62% 0.0 mm CLR
14:04 17.6 °C 10.0 °C 1000.0 hPa NW 14.0 km/h 25.9 km/h 61% 0.0 mm CLR
14:09 17.6 °C 10.0 °C 1000.0 hPa WNW 13.7 km/h 22.2 km/h 61% 0.0 mm CLR
14:14 17.7 °C 10.1 °C 1000.0 hPa WNW 13.7 km/h 22.2 km/h 61% 0.0 mm CLR
14:19 17.7 °C 10.1 °C 999.9 hPa NW 13.7 km/h 18.5 km/h 61% 0.0 mm CLR
14:24 17.8 °C 9.9 °C 999.9 hPa WNW 13.7 km/h 20.4 km/h 60% 0.0 mm CLR
14:29 17.8 °C 9.7 °C 999.9 hPa WNW 11.9 km/h 22.2 km/h 59% 0.0 mm CLR
14:34 17.9 °C 9.8 °C 999.6 hPa West 11.9 km/h 13.0 km/h 59% 0.0 mm CLR
14:39 18.2 °C 10.1 °C 999.6 hPa West 11.1 km/h 20.4 km/h 59% 0.0 mm CLR
14:44 18.4 °C 10.2 °C 999.6 hPa WNW 11.1 km/h 14.8 km/h 59% 0.0 mm CLR
14:49 18.7 °C 10.0 °C 999.6 hPa WSW 9.5 km/h 14.8 km/h 57% 0.0 mm CLR
14:54 18.8 °C 10.3 °C 999.6 hPa NW 9.5 km/h 14.8 km/h 58% 0.0 mm CLR
14:59 18.7 °C 9.7 °C 999.6 hPa NW 10.0 km/h 14.8 km/h 56% 0.0 mm CLR
15:04 18.6 °C 9.7 °C 999.4 hPa NNW 10.0 km/h 13.0 km/h 56% 0.0 mm CLR
15:09 18.6 °C 9.7 °C 999.4 hPa WNW 9.5 km/h 11.1 km/h 56% 0.0 mm CLR
15:14 18.5 °C 9.6 °C 999.4 hPa West 9.5 km/h 16.7 km/h 56% 0.0 mm CLR
15:19 18.5 °C 9.3 °C 999.5 hPa West 6.9 km/h 14.8 km/h 55% 0.0 mm CLR
15:24 18.6 °C 9.4 °C 999.5 hPa WSW 6.9 km/h 16.7 km/h 55% 0.0 mm CLR
15:29 18.6 °C 9.7 °C 999.5 hPa WNW 10.0 km/h 11.1 km/h 56% 0.0 mm CLR
15:35 18.6 °C 9.4 °C 999.3 hPa WSW 10.0 km/h 16.7 km/h 55% 0.0 mm CLR
15:39 18.7 °C 9.7 °C 999.3 hPa West 8.7 km/h 11.1 km/h 56% 0.0 mm CLR
15:44 18.7 °C 9.7 °C 999.3 hPa WSW 8.7 km/h 14.8 km/h 56% 0.0 mm CLR
15:49 18.7 °C 9.7 °C 999.2 hPa West 8.4 km/h 14.8 km/h 56% 0.0 mm CLR
15:54 18.8 °C 9.8 °C 999.2 hPa WSW 8.4 km/h 14.8 km/h 56% 0.0 mm CLR
15:59 18.9 °C 9.7 °C 999.2 hPa SW 8.4 km/h 14.8 km/h 55% 0.0 mm CLR
16:05 19.1 °C 9.8 °C 999.0 hPa WSW 8.0 km/h 19.3 km/h 55% 0.0 mm CLR
16:09 19.0 °C 9.8 °C 999.0 hPa SW 10.0 km/h 14.8 km/h 55% 0.0 mm CLR
16:14 19.0 °C 9.8 °C 999.0 hPa WSW 10.0 km/h 13.0 km/h 55% 0.0 mm CLR
16:19 19.1 °C 9.6 °C 998.9 hPa WSW 8.7 km/h 13.0 km/h 54% 0.0 mm CLR
16:25 19.1 °C 9.8 °C 998.9 hPa WSW 9.7 km/h 14.5 km/h 55% 0.0 mm CLR
16:29 19.1 °C 9.8 °C 998.9 hPa NW 8.7 km/h 9.3 km/h 55% 0.0 mm CLR
16:34 19.2 °C 9.7 °C 998.9 hPa SW 8.7 km/h 20.4 km/h 54% 0.0 mm CLR
16:39 19.2 °C 9.7 °C 998.9 hPa WNW 9.5 km/h 18.5 km/h 54% 0.0 mm CLR
16:44 19.2 °C 9.1 °C 998.9 hPa WSW 9.5 km/h 20.4 km/h 52% 0.0 mm CLR
16:49 19.1 °C 9.0 °C 998.9 hPa West 11.9 km/h 24.1 km/h 52% 0.0 mm CLR
16:54 19.1 °C 9.0 °C 998.9 hPa WNW 11.9 km/h 25.9 km/h 52% 0.0 mm CLR
16:59 19.0 °C 8.9 °C 998.9 hPa West 13.0 km/h 18.5 km/h 52% 0.0 mm CLR
17:04 19.1 °C 9.0 °C 998.8 hPa SW 13.0 km/h 18.5 km/h 52% 0.0 mm CLR
17:09 19.2 °C 9.1 °C 998.8 hPa West 12.2 km/h 20.4 km/h 52% 0.0 mm CLR
17:14 19.3 °C 9.2 °C 998.8 hPa NW 12.2 km/h 31.5 km/h 52% 0.0 mm CLR
17:19 19.4 °C 9.3 °C 998.9 hPa West 14.0 km/h 25.9 km/h 52% 0.0 mm CLR
17:24 19.3 °C 9.2 °C 998.9 hPa WSW 14.0 km/h 20.4 km/h 52% 0.0 mm CLR
17:29 19.3 °C 8.9 °C 998.9 hPa West 14.0 km/h 29.6 km/h 51% 0.0 mm CLR
17:34 19.3 °C 9.5 °C 998.9 hPa NNW 14.0 km/h 18.5 km/h 53% 0.0 mm CLR
17:39 19.3 °C 9.5 °C 998.9 hPa WNW 14.0 km/h 25.9 km/h 53% 0.0 mm CLR
17:45 19.2 °C 9.4 °C 998.9 hPa West 14.5 km/h 22.5 km/h 53% 0.0 mm CLR
17:49 19.1 °C 9.6 °C 999.0 hPa West 13.0 km/h 14.8 km/h 54% 0.0 mm CLR
17:54 19.0 °C 9.2 °C 999.0 hPa West 13.0 km/h 16.7 km/h 53% 0.0 mm CLR
17:59 18.9 °C 9.1 °C 999.0 hPa West 13.0 km/h 20.4 km/h 53% 0.0 mm CLR
18:04 18.8 °C 9.3 °C 999.1 hPa West 13.0 km/h 20.1 km/h 54% 0.0 mm CLR
18:09 18.8 °C 9.0 °C 999.1 hPa WNW 11.1 km/h 16.7 km/h 53% 0.0 mm CLR
18:14 18.8 °C 9.3 °C 999.1 hPa West 11.1 km/h 13.0 km/h 54% 0.0 mm CLR
18:19 18.8 °C 9.6 °C 999.0 hPa West 9.5 km/h 9.3 km/h 55% 0.0 mm CLR
18:25 18.8 °C 9.3 °C 999.0 hPa WSW 9.5 km/h 14.8 km/h 54% 0.0 mm CLR
18:29 18.8 °C 9.3 °C 999.0 hPa West 6.4 km/h 9.5 km/h 54% 0.0 mm CLR
18:35 18.8 °C 9.3 °C 999.0 hPa West 8.0 km/h 9.7 km/h 54% 0.0 mm CLR
18:39 18.8 °C 9.0 °C 999.0 hPa WNW 5.8 km/h 10.3 km/h 53% 0.0 mm CLR
18:45 18.7 °C 9.2 °C 999.0 hPa WNW 4.8 km/h 12.9 km/h 54% 0.0 mm CLR
18:49 18.7 °C 9.2 °C 999.0 hPa WNW 6.9 km/h 7.4 km/h 54% 0.0 mm CLR
18:55 18.7 °C 9.2 °C 999.0 hPa WNW 8.0 km/h 11.3 km/h 54% 0.0 mm CLR
18:59 18.7 °C 9.2 °C 999.0 hPa West 5.8 km/h 11.1 km/h 54% 0.0 mm CLR
19:05 18.7 °C 9.4 °C 998.8 hPa WNW 4.8 km/h 11.3 km/h 55% 0.0 mm CLR
19:09 18.7 °C 9.4 °C 998.8 hPa SW 4.7 km/h 9.3 km/h 55% 0.0 mm CLR
19:15 18.7 °C 9.4 °C 998.8 hPa South 4.7 km/h 7.4 km/h 55% 0.0 mm CLR
19:19 18.7 °C 10.0 °C 998.8 hPa SSE 4.7 km/h 5.6 km/h 57% 0.0 mm CLR
19:25 18.6 °C 10.2 °C 998.8 hPa SE 4.7 km/h 7.4 km/h 58% 0.0 mm CLR
19:29 18.4 °C 10.5 °C 998.8 hPa SE 5.8 km/h 9.3 km/h 60% 0.0 mm CLR
19:34 18.3 °C 10.7 °C 998.8 hPa SSE 5.8 km/h 7.4 km/h 61% 0.0 mm CLR
19:39 18.3 °C 10.7 °C 998.8 hPa SE 5.0 km/h 7.4 km/h 61% 0.0 mm CLR
19:44 18.2 °C 10.6 °C 998.8 hPa SE 5.0 km/h 7.4 km/h 61% 0.0 mm CLR
19:49 18.2 °C 10.6 °C 998.8 hPa SE 5.8 km/h 9.3 km/h 61% 0.0 mm CLR
19:54 18.1 °C 10.4 °C 998.8 hPa ESE 5.8 km/h 5.6 km/h 61% 0.0 mm CLR
19:59 18.1 °C 10.7 °C 998.8 hPa South 4.7 km/h 8.7 km/h 62% 0.0 mm CLR
20:04 18.1 °C 10.4 °C 998.9 hPa SE 4.7 km/h 7.4 km/h 61% 0.0 mm CLR
20:09 18.1 °C 10.4 °C 998.9 hPa SSE 5.0 km/h 7.4 km/h 61% 0.0 mm CLR
20:15 18.1 °C 10.4 °C 998.9 hPa South 5.0 km/h 7.4 km/h 61% 0.0 mm CLR
20:19 18.1 °C 10.4 °C 999.1 hPa SSE 5.8 km/h 9.3 km/h 61% 0.0 mm CLR
20:24 18.0 °C 10.6 °C 999.1 hPa SSW 5.8 km/h 7.4 km/h 62% 0.0 mm CLR
20:29 18.0 °C 10.4 °C 999.1 hPa South 5.8 km/h 9.3 km/h 61% 0.0 mm CLR
20:34 17.9 °C 10.5 °C 999.1 hPa SSW 5.8 km/h 9.3 km/h 62% 0.0 mm CLR
20:39 17.9 °C 10.8 °C 999.1 hPa SSW 6.4 km/h 14.8 km/h 63% 0.0 mm CLR
20:44 17.8 °C 10.9 °C 999.1 hPa SSW 6.4 km/h 8.7 km/h 64% 0.0 mm CLR
20:49 17.8 °C 11.1 °C 999.5 hPa South 6.9 km/h 11.1 km/h 65% 0.0 mm CLR
20:54 17.7 °C 11.3 °C 999.5 hPa South 6.9 km/h 7.4 km/h 66% 0.0 mm CLR
21:00 17.7 °C 11.3 °C 999.5 hPa South 4.8 km/h 8.0 km/h 66% 0.0 mm CLR
21:04 17.6 °C 11.4 °C 999.4 hPa South 5.8 km/h 7.4 km/h 67% 0.0 mm CLR
21:09 17.6 °C 11.4 °C 999.4 hPa South 5.0 km/h 7.4 km/h 67% 0.0 mm CLR
21:14 17.5 °C 11.5 °C 999.4 hPa WSW 5.0 km/h 9.3 km/h 68% 0.0 mm CLR
21:19 17.5 °C 11.7 °C 999.5 hPa SW 3.9 km/h 8.4 km/h 69% 0.0 mm CLR
21:24 17.4 °C 11.9 °C 999.5 hPa SW 3.9 km/h 7.4 km/h 70% 0.0 mm CLR
21:29 17.3 °C 11.8 °C 999.5 hPa South 5.8 km/h 13.0 km/h 70% 0.0 mm CLR
21:34 17.2 °C 11.4 °C 999.6 hPa SSW 5.8 km/h 18.5 km/h 69% 0.0 mm CLR
21:39 17.2 °C 11.2 °C 999.6 hPa SW 9.5 km/h 18.5 km/h 68% 0.0 mm CLR
21:45 17.1 °C 11.2 °C 999.6 hPa South 9.5 km/h 13.0 km/h 68% 0.0 mm CLR
21:49 17.1 °C 11.2 °C 999.8 hPa SW 10.0 km/h 14.8 km/h 68% 0.0 mm CLR
21:55 17.0 °C 11.1 °C 999.8 hPa SSW 9.7 km/h 19.3 km/h 68% 0.0 mm CLR
22:00 17.1 °C 10.9 °C 999.8 hPa SSW 11.3 km/h 19.3 km/h 67% 0.0 mm CLR
22:05 17.1 °C 10.9 °C 999.7 hPa SSW 11.3 km/h 14.5 km/h 67% 0.0 mm CLR
22:09 16.9 °C 10.9 °C 999.7 hPa South 9.5 km/h 11.1 km/h 68% 0.0 mm CLR
22:15 16.9 °C 11.2 °C 999.7 hPa South 9.7 km/h 16.1 km/h 69% 0.0 mm CLR
22:19 16.8 °C 11.1 °C 999.7 hPa SSE 7.6 km/h 11.1 km/h 69% 0.0 mm CLR
22:24 16.8 °C 11.5 °C 999.7 hPa East 7.6 km/h 7.4 km/h 71% 0.0 mm CLR
22:29 16.6 °C 11.7 °C 999.7 hPa ESE 5.0 km/h 5.6 km/h 73% 0.0 mm CLR
22:35 16.6 °C 11.7 °C 999.7 hPa ESE 4.8 km/h   73% 0.0 mm CLR
22:39 16.4 °C 11.8 °C 999.7 hPa Calm   3.7 km/h 74% 0.0 mm CLR
22:44 16.3 °C 11.8 °C 999.7 hPa Calm     75% 0.0 mm CLR
22:49 16.3 °C 12.1 °C 999.7 hPa Calm     76% 0.0 mm CLR
22:55 16.2 °C 11.9 °C 999.7 hPa Calm   8.0 km/h 76% 0.0 mm CLR
22:59 16.1 °C 11.9 °C 999.7 hPa NNW 2.3 km/h   76% 0.0 mm CLR
23:05 15.9 °C 11.9 °C 999.7 hPa NNW 2.3 km/h 4.7 km/h 77% 0.0 mm CLR
23:09 15.9 °C 11.7 °C 999.7 hPa NNW 2.3 km/h 5.6 km/h 76% 0.0 mm CLR
23:14 15.9 °C 11.4 °C 999.7 hPa NNW 2.3 km/h 3.7 km/h 75% 0.0 mm CLR
23:19 15.8 °C 11.4 °C 999.8 hPa NNW 2.9 km/h 3.9 km/h 75% 0.0 mm CLR
23:25 15.8 °C 11.4 °C 999.8 hPa NNW 2.9 km/h   75% 0.0 mm CLR
23:29 15.8 °C 11.4 °C 999.8 hPa Calm     75% 0.0 mm CLR
23:34 15.8 °C 11.6 °C 999.8 hPa Calm     76% 0.0 mm CLR
23:39 15.7 °C 11.5 °C 999.8 hPa Calm   2.3 km/h 76% 0.0 mm CLR
23:45 15.7 °C 11.5 °C 999.8 hPa Calm   9.3 km/h 76% 0.0 mm CLR
23:49 15.7 °C 11.5 °C 999.7 hPa SW 3.9 km/h 11.1 km/h 76% 0.0 mm CLR
23:54 15.7 °C 11.5 °C 999.7 hPa South 3.9 km/h 7.4 km/h 76% 0.0 mm CLR
23:59 15.6 °C 11.4 °C 999.7 hPa South 6.9 km/h 7.4 km/h 76% 0.0 mm CLR
Murcia-Puente Tocinos, España
Compliments of Weather Underground - 2.75 mb

La estación de MeteoMurcia.com, publica sus datos en los siguientes proyectos:

Weather Underground PWS IMURCIAP2 Meteoclimatic www.awekas.at

W3Counter
Web Analytics